Location: Nashville
(36.1660°N, 86.7840°W)
Time: 16:18:13
(UTC-06:00)

Tiangong - Pass Details

Date: 03 December 2022
Orbit: 383 x 386 km, 41.5° (Epoch: 28 January)

Event Time Altitude Azimuth Distance (km) Brightness Sun altitude
Rises 17:24:35 0° 269° (W) 2,254 3.3 -10.5°
Reaches altitude 10° 17:26:44 10° 278° (W) 1,404 1.8 -10.9°
Maximum altitude 17:29:43 37° 348° (NNW) 615 -1.2 -11.5°
Enters shadow 17:31:38 18° 48° (NE) 1,017 -0.6 -11.8°
